Weather History for KAPC - December, 2010

Change the Weather History Date:

Saturday, December 18, 2010

  Actual Average Record
Temperature  
Mean Temperature 55 °F 45 °F  
Max Temperature 57 °F 55 °F 62 °F (2003)
Min Temperature 52 °F 36 °F 21 °F (2006)
Degree Days  
Heating Degree Days 10    
Month to date heating degree days 241  
Since 1 July heating degree days 997  
Cooling Degree Days 0    
Month to date cooling degree days 0  
Year to date cooling degree days 189  
Growing Degree Days 5 (Base 50)    
Moisture  
Dew Point 53 °F    
Average Humidity 93    
Maximum Humidity 100    
Minimum Humidity 86    
Precipitation  
Precipitation 0.23 in - - ()
Month to date precipitation 2.23  
Year to date precipitation 23.99  
Since 1 July precipitation 6.65  
Sea Level Pressure  
Sea Level Pressure 29.73 in    
Wind  
Wind Speed 10 mph (SSW)    
Max Wind Speed 23 mph    
Max Gust Speed 30 mph    
Visibility 8 miles    
Events Rain    
T = Trace of Precipitation, MM = Missing Value Source: NWS Daily Summary

Daily Weather History Graph

Daily Weather History Graph

Search for Another Location

Airport or City:

Trip Planner

Search our weather history database for the weather conditions in past years. The results will help you decide how hot, cold, wet, or windy it might be!

Date:

Astronomy

Dec. 18, 2010 Rise Set
Actual Time 7:20 AM PST 4:51 PM PST
Civil Twilight 6:50 AM PST 5:20 PM PST
Nautical Twilight 6:17 AM PST 5:53 PM PST
Astronomical Twilight 5:45 AM PST 6:26 PM PST
Moon 2:40 PM PST (12/18) 4:47 AM PST (12/18)
Length of Visible Light 10h 29m
Length of Day
9h 30m
Waxing Gibbous, 93% of the Moon is Illuminated
Dec 18
Waxing Gibbous
Dec 21
Full
Dec 27
Last Quarter
Jan 4
New
Jan 12
First Quarter

Hourly Weather History & Observations

Time (PST) Temp. Dew Point Humidity Pressure Visibility Wind Dir Wind Speed Gust Speed Precip Events Conditions
12:54 AM 53.1 °F 51.1 °F 93% 29.66 in 8.0 mi South 13.8 mph - 0.01 in   Overcast
1:54 AM 54.0 °F 53.1 °F 97% 29.68 in 6.0 mi SSW 17.3 mph - 0.04 in Rain Light Rain
2:46 AM 53.6 °F 53.6 °F 100% 29.71 in 8.0 mi SSW 19.6 mph - 0.05 in   Overcast
2:54 AM 54.0 °F 53.1 °F 97% 29.68 in 5.0 mi SSW 21.9 mph 27.6 mph 0.06 in   Overcast
3:12 AM 53.6 °F 53.6 °F 100% 29.70 in 7.0 mi SSW 19.6 mph - 0.01 in   Overcast
3:54 AM 54.0 °F 53.1 °F 97% 29.68 in 10.0 mi SSW 16.1 mph - 0.02 in Rain Light Rain
4:40 AM 53.6 °F 53.6 °F 100% 29.71 in 10.0 mi South 11.5 mph - 0.00 in   Overcast
5:23 AM 53.6 °F 53.6 °F 100% 29.72 in 10.0 mi South 10.4 mph - N/A   Overcast
5:54 AM 54.0 °F 53.1 °F 97% 29.71 in 10.0 mi South 9.2 mph - N/A   Overcast
6:54 AM 54.0 °F 53.1 °F 97% 29.72 in 10.0 mi South 9.2 mph - N/A   Overcast
7:54 AM 54.0 °F 53.1 °F 97% 29.73 in 8.0 mi South 9.2 mph - N/A   Overcast
8:54 AM 55.0 °F 54.0 °F 96% 29.77 in 9.0 mi SSW 10.4 mph - N/A   Overcast
9:54 AM 55.9 °F 54.0 °F 93% 29.79 in 10.0 mi South 9.2 mph - N/A   Overcast
10:54 AM 57.0 °F 54.0 °F 89% 29.79 in 10.0 mi SSW 9.2 mph - N/A   Overcast
11:54 AM 55.9 °F 54.0 °F 93% 29.78 in 10.0 mi SW 9.2 mph - N/A   Overcast
12:54 PM 57.0 °F 53.1 °F 87% 29.77 in 10.0 mi SW 8.1 mph - 0.00 in Rain Light Rain
1:01 PM 57.2 °F 53.6 °F 88% 29.79 in 10.0 mi SSW 8.1 mph - 0.00 in   Overcast
1:08 PM 57.2 °F 53.6 °F 88% 29.79 in 10.0 mi SSW 6.9 mph - 0.00 in   Overcast
1:54 PM 57.0 °F 53.1 °F 87% 29.75 in 10.0 mi South 3.5 mph - 0.00 in Rain Light Rain
2:54 PM 57.0 °F 52.0 °F 83% 29.74 in 10.0 mi SSE 4.6 mph - 0.00 in   Mostly Cloudy
3:33 PM 55.4 °F 51.8 °F 88% 29.76 in 8.0 mi SSW 6.9 mph - 0.01 in Rain Light Rain
3:50 PM 55.4 °F 53.6 °F 94% 29.76 in 9.0 mi SSW 6.9 mph - 0.01 in Rain Light Rain
3:54 PM 55.0 °F 53.1 °F 93% 29.73 in 10.0 mi SSW 6.9 mph - 0.01 in Rain Light Rain
4:12 PM 55.4 °F 51.8 °F 88% 29.75 in 10.0 mi South 5.8 mph - 0.00 in   Overcast
4:45 PM 53.6 °F 53.6 °F 100% 29.75 in 9.0 mi SSW 4.6 mph - 0.01 in   Overcast
4:54 PM 54.0 °F 53.1 °F 97% 29.73 in 5.0 mi SSW 4.6 mph - 0.02 in Rain Light Rain
5:10 PM 53.6 °F 53.6 °F 100% 29.74 in 5.0 mi South 4.6 mph - 0.01 in Rain Light Rain
5:46 PM 53.6 °F 53.6 °F 100% 29.73 in 6.0 mi South 3.5 mph - 0.01 in Rain Light Rain
5:54 PM 54.0 °F 53.1 °F 97% 29.71 in 3.0 mi SSE 4.6 mph - 0.01 in Rain Light Rain
6:24 PM 53.6 °F 53.6 °F 100% 29.73 in 2.5 mi SSE 4.6 mph - 0.05 in Rain Heavy Rain
6:36 PM 53.6 °F 53.6 °F 100% 29.73 in 5.0 mi South 5.8 mph - 0.06 in Rain Light Rain
6:54 PM 54.0 °F 53.1 °F 97% 29.70 in 10.0 mi SW 4.6 mph - 0.06 in   Overcast
7:23 PM 53.6 °F 53.6 °F 100% 29.72 in 8.0 mi Calm Calm - N/A   Overcast
7:52 PM 53.6 °F 53.6 °F 100% 29.74 in 7.0 mi SSW 4.6 mph - N/A   Overcast
7:54 PM 54.0 °F 53.1 °F 97% 29.71 in 7.0 mi SW 3.5 mph - N/A   Overcast
8:05 PM 53.6 °F 53.6 °F 100% 29.74 in 7.0 mi SSW 5.8 mph - N/A   Mostly Cloudy
8:23 PM 53.6 °F 53.6 °F 100% 29.74 in 8.0 mi SSW 9.2 mph - N/A   Mostly Cloudy
8:38 PM 55.4 °F 53.6 °F 94% 29.74 in 10.0 mi SSW 9.2 mph - 0.00 in   Overcast
8:50 PM 55.4 °F 53.6 °F 94% 29.73 in 10.0 mi South 11.5 mph - 0.00 in   Mostly Cloudy
8:54 PM 55.0 °F 53.1 °F 93% 29.70 in 10.0 mi South 11.5 mph - 0.00 in   Scattered Clouds
9:54 PM 55.9 °F 52.0 °F 87% 29.71 in 10.0 mi SSW 13.8 mph - N/A   Overcast
10:54 PM 55.0 °F 52.0 °F 89% 29.71 in 10.0 mi SSW 15.0 mph - N/A   Mostly Cloudy
11:54 PM 55.0 °F 52.0 °F 89% 29.73 in 10.0 mi SSW 13.8 mph - N/A   Mostly Cloudy